Location: Iesi
(43.5167°N, 13.2333°E)
Time: 19:23:09
(UTC+00:00)

Cosmos 2360 Rocket - Pass Details

Date: 08 August 2020
Orbit: 834 x 845 km, 71.0° (Epoch: 24 September)

Event Time Altitude Azimuth Distance (km) Brightness Sun altitude
Rises 20:29:27 0° 346° (NNW) 3,414 6.4 -19.9°
Reaches altitude 10° 20:33:02 10° 8° (N) 2,475 5.2 -20.3°
Maximum altitude 20:36:18 15° 44° (NE) 2,112 4.3 -20.7°
Enters shadow 20:39:04 11° 75° (ENE) 2,373 4.3 -21.1°
